Theta_e
290 290 290 290 290 290 291 291 291 291 291 291 291 291 291 291 293 292 293 294 294 294 294 294 295 294 294 293 291 292 292 293 293 293 293 293 293 293 293 293 294 293 294 294 293 293 293 293 293 293 293 293 292 292 292 292 292 292 292 292 292 291 292 293 292 292 291 291 293 293 294 296 296 296 296 295 294 294 295 297 295 296 296 295 295
289 289 289 290 290 290 291 291 291 290 290 290 290 290 291 291 292 292 293 293 294 293 294 293 294 294 293 292 292 292 292 292 291 292 292 293 293 293 293 293 293 293 293 293 293 293 292 292 292 292 292 292 293 293 292 292 292 292 292 290 292 291 291 292 292 291 289 287 287 289 291 294 295 295 294 294 294 294 295 296 294 295 295 294 294
287 288 289 290 290 290 290 290 290 290 290 289 290 290 290 291 292 292 292 293 293 294 293 293 293 293 293 292 292 291 292 292 292 292 293 292 292 293 293 293 293 292 293 293 293 292 292 292 292 292 292 292 292 291 291 291 291 291 291 290 289 291 291 292 292 291 287 288 289 288 286 287 292 293 294 293 293 293 294 294 293 294 294 294 294
287 288 288 289 290 289 290 289 289 290 290 290 289 289 290 291 291 291 291 292 293 293 293 293 293 293 293 293 292 292 291 291 293 292 293 292 292 292 292 292 292 292 293 292 292 292 292 291 291 291 291 292 291 291 291 290 290 290 290 290 290 287 288 289 291 291 289 287 283 285 285 287 285 287 288 290 292 292 293 292 293 293 293 293 293
288 288 289 289 289 289 289 289 290 290 290 290 290 289 289 290 290 291 291 291 291 292 292 292 293 292 292 292 292 292 293 293 293 292 292 292 292 292 291 292 292 292 292 292 292 291 292 292 291 291 291 291 291 290 290 290 290 291 290 290 289 288 287 288 290 291 291 290 287 284 284 284 284 285 286 286 291 290 291 292 292 292 292 292 291
289 289 289 289 289 289 289 290 290 290 290 290 290 290 290 290 290 291 291 291 291 291 292 292 291 291 292 291 291 291 290 290 289 289 290 290 290 291 292 292 292 292 292 292 292 292 291 291 292 291 291 290 291 290 290 291 291 290 290 290 289 290 288 287 287 290 290 290 290 289 287 283 283 284 284 281 288 290 290 291 291 292 292 291 291
290 289 290 289 290 289 290 290 290 290 290 290 290 290 290 290 291 290 291 291 291 291 292 293 291 291 290 290 290 290 289 290 290 290 290 290 291 291 291 292 293 292 292 292 292 292 292 292 292 292 291 291 291 290 290 290 290 290 291 290 289 289 289 287 287 287 289 290 291 290 289 289 288 285 282 283 281 286 289 289 290 291 291 291 291
289 289 290 290 289 290 289 290 290 290 290 290 290 290 290 290 290 290 290 290 291 291 291 291 291 291 290 290 291 290 289 289 290 290 291 291 290 291 291 291 292 292 292 292 292 292 292 292 292 291 291 291 291 290 290 290 291 291 291 290 290 290 289 287 287 287 286 286 289 288 288 289 289 288 288 285 283 281 283 288 290 290 290 290 290
289 290 289 289 290 290 290 290 291 291 291 291 290 290 290 291 290 290 290 290 290 290 291 290 291 290 290 290 289 290 290 291 290 291 290 291 290 291 291 291 291 292 293 292 292 292 292 291 292 291 291 291 291 290 290 291 290 290 290 289 289 289 289 289 288 287 287 286 286 287 287 287 287 287 287 287 284 282 282 284 285 288 289 289 290
290 289 290 290 291 291 292 291 291 291 291 292 291 291 291 291 290 290 289 290 290 290 290 290 290 290 290 290 289 289 290 290 291 290 290 291 290 290 291 291 291 291 292 293 293 293 292 292 291 291 291 290 290 290 290 290 290 290 290 290 289 289 289 288 288 288 288 287 287 287 285 285 286 286 286 285 285 285 281 282 284 284 283 286 289
290 290 290 291 292 291 292 291 291 292 292 291 291 291 291 291 290 289 289 290 290 290 290 290 290 290 289 290 289 289 289 290 289 289 289 290 289 289 289 290 290 290 291 291 292 292 292 292 291 291 291 291 290 290 289 289 289 289 289 289 289 289 288 288 288 288 288 287 287 287 286 285 284 283 284 284 284 283 282 282 283 284 284 283 286
290 290 290 291 291 291 291 290 291 291 292 291 291 291 291 291 291 289 290 290 290 290 290 290 290 290 290 290 289 289 289 288 288 288 289 289 289 288 289 289 290 290 290 290 291 291 292 291 291 291 290 290 290 290 290 289 289 289 289 289 288 289 289 288 288 287 288 287 287 287 286 287 286 285 286 285 284 283 283 282 282 283 284 285 286
290 290 290 291 291 290 291 291 291 292 292 291 292 292 292 291 290 289 289 291 291 291 290 290 291 290 290 290 290 290 289 289 289 289 289 289 289 289 289 289 289 289 290 290 291 291 291 290 290 290 290 290 290 290 290 290 290 289 289 289 288 288 288 288 287 287 287 286 286 287 287 286 286 287 287 286 286 285 284 281 283 284 281 282 285
291 291 291 292 292 292 292 292 292 292 292 292 292 292 292 291 291 290 290 291 291 291 291 290 290 291 291 290 290 290 289 290 290 289 290 289 290 289 289 289 289 289 289 290 291 291 291 291 291 290 290 290 290 290 290 290 290 289 289 288 288 288 288 288 288 288 288 288 288 286 286 286 286 287 286 286 285 284 283 282 282 282 283 281 284
292 292 292 292 292 292 292 292 292 293 293 293 293 292 293 292 292 291 290 291 292 291 291 291 291 291 291 291 291 290 290 290 290 290 290 290 290 290 290 290 290 290 290 291 291 291 291 291 291 290 290 290 290 290 290 290 290 289 289 288 288 288 288 288 287 287 287 287 287 287 286 286 286 287 286 286 286 285 284 283 282 279 280 281 281
292 292 292 292 293 293 292 292 292 292 293 293 292 293 293 292 292 292 291 292 292 292 292 291 291 291 292 291 291 291 291 291 291 291 291 291 291 291 290 291 291 291 291 291 291 291 291 291 290 290 290 290 290 290 289 289 289 288 288 288 287 289 288 288 287 287 287 287 287 287 286 286 287 287 287 286 286 286 285 285 283 281 279 277 280
293 293 292 293 293 293 293 292 293 292 292 292 293 294 293 293 293 292 292 292 292 292 292 292 292 292 292 292 292 291 291 291 290 291 291 292 292 292 291 291 291 291 291 291 291 291 291 290 290 290 290 290 290 289 289 289 289 288 287 287 287 288 288 287 287 287 287 287 287 287 286 286 286 286 286 286 286 286 286 285 284 282 281 278 276
293 293 293 293 293 293 293 293 292 292 292 293 293 294 294 293 292 292 292 291 292 292 292 292 292 292 292 292 292 292 291 291 291 291 291 291 291 291 291 291 291 291 291 292 291 291 291 290 290 289 290 290 289 289 289 288 288 288 288 287 288 288 287 287 287 287 287 287 286 286 286 285 286 286 286 286 285 285 285 285 284 284 283 280 278
293 293 293 293 293 293 293 293 293 293 292 292 293 293 292 292 291 291 290 291 292 293 293 292 292 292 292 292 292 292 292 291 291 291 291 290 290 291 291 291 291 291 291 291 291 290 290 290 290 289 289 289 289 289 289 288 288 287 288 287 288 288 287 286 287 287 287 287 286 285 286 285 285 285 285 285 285 285 284 284 284 284 283 282 280
294 294 295 295 295 295 294 294 293 293 293 293 292 292 291 291 291 291 291 291 290 290 291 290 291 291 291 291 291 291 291 291 291 291 290 290 290 290 290 290 290 291 290 290 290 289 289 289 289 289 288 288 288 288 288 288 288 287 287 287 287 287 286 286 286 286 286 286 285 285 285 285 285 285 284 285 284 284 284 283 283 283 282 282 281
295 295 295 295 295 295 295 294 294 293 293 292 292 291 291 291 291 291 290 290 291 291 291 291 291 291 291 290 291 291 291 291 291 290 290 289 289 290 290 290 290 289 290 289 289 289 289 289 288 288 287 287 287 287 288 288 287 287 287 287 286 286 285 285 285 285 286 286 285 284 284 284 285 284 284 284 283 283 284 283 283 282 281 282 281
294 295 295 295 295 295 295 295 294 293 293 292 293 292 292 291 292 292 291 291 291 291 291 292 292 291 291 291 290 291 291 290 290 290 289 289 289 289 290 290 289 289 289 289 289 289 289 288 287 287 287 287 287 287 287 287 286 286 286 286 286 286 285 285 285 284 285 285 284 284 283 284 284 283 283 283 283 282 283 282 281 282 281 281 282
292 293 293 294 294 294 294 294 293 293 293 294 293 293 293 293 293 293 292 292 292 292 292 292 291 291 291 291 291 290 290 290 289 289 289 289 289 290 290 289 289 289 289 289 288 288 287 287 287 287 287 286 287 287 287 287 286 286 285 285 285 285 284 284 283 283 283 284 283 283 282 282 283 282 282 282 282 282 282 281 281 281 280 280 281
291 292 291 292 292 292 292 292 293 293 293 293 294 293 293 293 293 292 292 292 292 293 292 292 291 291 291 290 290 290 290 289 289 289 289 289 289 289 289 289 289 288 288 288 288 287 287 287 286 286 286 286 286 287 286 286 286 285 285 284 284 284 284 283 283 283 283 282 282 281 282 282 282 281 281 281 281 281 281 281 280 280 280 280 280
290 290 290 290 290 290 290 291 291 292 292 292 292 292 292 292 293 292 293 293 293 293 292 292 291 290 290 290 290 290 289 289 289 289 289 289 289 289 289 288 288 287 287 287 287 287 287 287 286 286 286 286 286 286 285 285 285 285 284 284 283 283 283 283 283 282 283 282 282 281 281 281 281 280 280 280 280 281 280 280 280 280 280 280 280
289 290 290 290 290 290 290 290 290 291 291 291 291 292 292 292 292 293 292 292 293 292 292 291 290 289 289 289 289 289 289 289 289 289 289 289 289 288 288 288 287 287 287 287 287 287 287 286 286 286 286 286 286 285 285 284 284 284 284 283 283 283 283 282 282 282 282 282 281 281 281 281 281 280 280 280 280 280 280 280 280 279 279 279 279
289 289 290 289 290 290 291 291 291 290 290 291 291 292 292 292 292 293 293 292 292 291 291 290 290 289 288 288 289 289 289 289 288 288 288 288 288 287 287 286 287 286 286 286 286 286 286 286 286 286 285 285 285 285 284 284 284 283 283 282 282 282 282 282 282 282 282 282 281 281 281 281 280 280 280 280 280 279 279 279 279 279 279 279 278
288 288 289 289 290 290 291 291 291 291 291 291 292 291 291 292 292 293 293 292 292 290 290 289 289 288 288 289 289 289 288 288 288 288 287 287 287 287 287 287 287 286 286 286 286 286 286 286 285 285 285 285 284 284 284 283 283 282 282 281 281 281 281 281 281 281 281 281 281 281 281 281 280 280 280 280 280 279 279 278 279 279 278 278 277
288 289 290 290 290 290 290 291 291 291 291 291 291 291 291 290 290 291 291 291 291 289 289 289 288 288 288 289 289 288 288 287 287 287 286 286 286 287 287 286 286 286 286 286 286 286 285 284 284 284 284 284 284 284 283 283 282 281 281 281 281 281 280 280 280 280 280 280 280 280 281 281 281 281 281 281 281 281 279 278 279 279 278 278 277
289 289 290 290 290 290 290 291 291 291 291 290 291 291 291 291 291 291 290 291 290 289 288 288 288 288 288 288 288 287 287 287 286 286 286 286 286 286 286 286 286 286 286 286 285 285 284 284 283 283 283 283 283 283 283 282 283 281 281 281 280 280 280 279 279 279 279 280 280 280 280 281 281 281 281 281 281 281 281 280 279 278 277 276 276
289 290 290 290 290 290 290 289 290 291 291 291 291 291 291 290 290 290 290 290 289 288 288 288 287 288 288 287 287 286 286 286 286 286 286 286 286 286 285 285 285 285 285 285 284 284 283 283 283 282 282 282 281 281 281 282 282 282 281 280 279 279 279 279 279 278 278 278 279 279 279 280 280 280 279 280 280 280 280 280 280 280 279 277 275
289 290 290 290 290 290 290 290 291 291 291 290 291 290 290 289 290 290 290 289 288 288 287 287 287 287 287 286 286 286 286 286 286 286 286 285 285 285 285 285 284 284 284 284 283 283 282 282 282 281 280 280 280 281 281 281 281 281 281 280 279 279 278 278 278 278 278 278 278 278 278 278 278 278 278 277 278 279 279 279 279 279 279 279 280
289 289 290 290 290 291 291 290 290 290 290 291 291 289 289 290 289 289 289 288 287 287 287 287 287 286 286 286 286 285 285 285 285 285 285 285 285 284 284 284 284 284 283 282 282 281 281 281 280 279 279 279 279 280 281 281 281 281 281 280 279 278 278 277 277 277 277 277 277 277 276 277 277 277 278 276 276 276 278 278 279 279 279 279 280
289 290 290 290 291 291 291 290 289 290 290 290 289 288 289 289 288 288 287 287 286 286 286 286 286 286 286 286 285 285 285 285 285 285 285 284 284 284 284 284 283 282 281 281 281 280 279 279 279 278 278 278 278 279 280 280 280 280 280 280 278 277 277 277 277 277 276 276 276 275 275 275 276 276 276 276 276 276 276 276 276 276 277 277 279
290 290 290 291 291 290 290 289 289 289 289 289 289 289 288 287 288 287 287 286 286 286 286 286 285 286 286 285 285 285 284 284 284 284 284 284 284 283 283 282 281 280 280 279 279 278 278 278 278 278 277 277 277 279 279 279 279 280 280 279 277 276 276 276 276 276 275 275 275 275 275 275 275 275 276 276 276 275 276 276 275 276 276 276 277
290 290 290 290 290 289 289 288 289 289 289 288 288 288 287 287 287 286 286 286 286 285 285 285 285 285 285 285 284 284 284 284 284 284 283 283 282 282 280 280 280 279 279 279 278 278 278 277 277 277 276 276 277 278 278 279 279 279 279 276 276 275 275 275 275 275 275 276 276 276 275 275 275 275 277 279 278 276 276 275 275 275 276 276 277
291 290 290 290 290 288 288 288 288 288 287 287 288 287 286 286 286 286 286 285 285 284 285 285 285 285 285 284 284 283 283 283 283 283 282 281 280 279 279 279 278 278 277 277 277 277 277 277 276 276 275 275 275 277 278 278 278 278 277 275 275 275 274 274 274 275 275 275 276 276 276 275 275 275 277 279 279 278 275 275 275 275 275 276 276
289 289 289 289 289 289 288 287 286 286 287 287 287 286 285 285 285 285 285 284 284 284 285 285 284 284 284 284 284 283 283 282 282 281 280 279 279 279 278 278 277 276 276 276 276 276 276 276 275 275 275 274 274 275 277 277 277 277 277 275 274 274 274 274 274 275 275 275 276 276 276 275 274 275 278 279 279 278 275 275 275 274 274 274 275
289 288 287 287 288 288 287 286 285 285 287 287 286 285 284 284 285 285 284 284 284 285 285 284 284 284 283 283 283 283 282 281 280 279 278 277 277 277 277 277 277 276 276 276 276 275 275 275 275 275 274 274 274 274 276 276 276 277 277 275 274 274 273 273 274 274 274 275 275 275 276 276 276 276 279 279 280 278 275 275 275 274 273 274 275
288 288 288 287 287 286 285 285 286 286 287 286 285 285 284 284 284 284 283 284 284 285 284 284 283 283 283 283 282 281 280 279 277 277 277 277 277 276 276 275 275 275 275 275 274 274 273 273 274 274 274 273 273 273 274 276 276 277 277 275 275 274 273 273 273 272 272 274 274 274 276 277 278 278 279 280 280 280 277 276 275 274 273 273 276
287 287 287 287 287 286 285 285 286 286 286 285 285 284 284 284 284 283 283 284 285 284 283 283 283 282 282 282 281 279 277 277 277 276 276 276 276 275 275 274 274 274 274 273 273 273 272 272 273 273 273 273 273 273 273 276 276 277 277 277 274 274 273 272 272 272 273 272 273 274 274 276 278 278 279 278 279 279 278 275 275 274 274 275 276
287 286 286 286 286 286 286 286 286 286 285 285 284 283 283 284 283 283 284 285 284 283 283 282 282 281 280 279 278 277 276 276 276 275 274 274 275 275 274 274 273 272 272 271 271 271 271 271 272 272 272 272 273 273 273 274 276 277 277 278 274 273 274 273 272 272 272 273 273 273 273 275 278 278 279 279 279 279 279 275 274 278 278 278 274
286 286 287 286 285 285 285 285 286 285 285 284 283 282 283 283 282 283 284 283 282 282 281 281 280 279 277 276 276 275 275 275 274 274 273 272 273 273 272 272 272 271 271 270 271 271 270 270 270 271 272 272 273 273 274 273 275 277 277 277 276 275 276 274 272 272 272 272 273 273 274 276 278 278 278 278 278 278 276 274 277 277 277 277 274
286 286 286 285 284 285 285 285 285 285 284 284 283 282 283 282 282 284 282 281 280 280 279 278 277 276 275 275 274 274 274 274 273 273 272 272 271 271 271 271 270 270 269 269 270 270 270 269 269 269 270 271 272 272 273 274 274 275 275 276 276 276 277 274 273 272 273 273 273 274 275 278 277 277 277 277 277 276 274 276 277 276 276 273 271
285 285 285 284 284 284 284 284 284 284 284 283 283 282 282 281 283 282 281 279 277 276 276 275 275 275 274 274 273 273 273 273 272 272 271 271 270 270 269 270 269 269 269 269 269 269 268 268 268 268 269 271 271 272 272 273 272 272 274 275 275 276 276 277 273 273 274 274 276 277 277 276 276 276 276 275 274 274 275 275 275 275 272 270 270
285 285 285 284 284 283 283 283 284 284 284 283 283 283 281 282 282 281 280 277 275 273 273 272 272 273 273 273 272 272 272 272 271 271 271 271 270 269 269 269 269 269 268 268 268 268 268 268 268 269 269 270 271 271 270 270 271 271 271 273 275 275 274 274 274 274 275 276 276 276 275 274 274 273 272 271 271 271 273 274 273 272 270 270 269
284 284 284 283 283 283 283 283 283 284 284 283 283 282 282 281 280 279 278 276 274 272 272 272 271 271 272 272 271 271 271 271 271 271 270 270 270 269 269 268 268 268 268 268 267 267 268 268 268 268 269 269 268 268 268 268 269 269 270 271 272 272 273 274 273 273 273 273 272 272 271 273 273 274 273 272 271 271 270 270 270 270 270 270 269
284 284 283 283 283 283 283 283 283 284 284 283 282 281 280 279 278 276 275 274 273 272 272 271 271 271 272 271 270 270 269 270 270 269 269 269 269 269 268 267 267 267 267 267 267 267 267 267 268 268 267 267 266 267 267 267 268 269 270 271 271 272 272 272 272 272 272 272 270 270 271 270 270 269 269 269 269 269 269 269 269 270 270 270 270
283 284 283 283 283 283 283 282 282 283 283 282 281 279 278 277 275 274 274 273 272 271 272 272 272 272 271 271 270 270 269 269 268 269 269 269 268 267 267 267 269 269 269 268 267 268 269 269 268 267 265 265 265 265 266 270 270 273 271 271 271 271 272 272 273 275 272 270 269 268 268 268 268 267 267 268 268 268 268 269 268 269 269 269 268
284 283 283 283 282 282 281 281 282 282 282 281 279 278 276 275 274 273 273 272 271 272 272 272 271 271 270 270 269 269 269 268 268 268 267 267 268 269 269 268 267 269 270 272 272 269 269 268 267 267 266 265 265 266 271 273 273 274 274 274 275 275 276 273 274 274 271 267 267 267 267 267 267 266 266 266 266 267 267 267 267 268 268 268 268
283 283 283 283 283 282 281 280 281 281 280 279 277 276 274 274 274 273 272 271 271 271 271 271 270 270 269 268 268 268 268 268 267 267 267 266 266 267 269 270 270 269 270 272 272 272 271 270 267 265 267 270 271 271 272 272 273 273 274 274 274 275 275 274 274 270 267 266 266 266 266 266 266 266 266 266 266 266 266 266 266 267 267 267 267
Wind_Speed
2 2 3 4 5 5 5 5 5 6 6 6 6 7 7 6 5 6 4 4 3 3 3 2 2 2 3 4 4 3 3 3 4 4 5 5 6 6 6 6 6 7 7 7 7 6 5 5 6 6 6 6 6 6 7 7 7 7 8 7 8 9 7 8 9 11 10 10 9 9 8 7 7 7 7 3 5 7 7 5 6 7 7 8 8
1 1 2 3 4 5 5 4 5 5 6 5 6 6 5 5 5 4 3 4 4 3 2 3 2 2 2 2 2 2 2 3 3 3 4 4 5 5 5 5 5 5 6 6 6 6 6 6 6 6 6 6 6 6 6 7 7 7 7 7 7 7 7 8 8 11 8 11 13 13 9 7 7 7 7 4 7 8 7 5 7 7 7 8 8
2 0 1 3 4 4 3 3 3 3 3 4 3 3 4 4 4 3 4 3 3 3 2 2 2 2 2 2 1 3 3 3 3 3 3 3 3 4 4 4 5 4 6 6 5 5 6 6 6 5 6 6 6 7 7 7 7 8 8 7 8 7 6 6 8 8 8 10 10 11 11 14 6 5 4 8 11 11 7 6 9 8 8 8 8
2 1 2 3 3 3 2 2 2 1 1 1 2 3 3 3 3 3 3 3 3 4 3 2 3 2 2 2 2 2 2 1 1 1 2 2 2 3 3 4 5 4 5 5 5 5 6 6 6 6 6 6 6 7 7 7 7 7 7 7 7 9 7 7 7 6 6 10 10 9 11 9 12 6 13 12 11 11 7 9 9 8 9 10 8
2 1 1 1 1 1 1 1 1 1 0 1 1 1 1 2 2 2 2 3 3 4 4 3 1 1 1 1 2 2 3 1 1 1 2 2 3 3 4 4 5 5 5 5 5 6 5 5 6 6 6 6 6 7 7 7 7 6 7 7 7 7 9 8 7 6 5 4 6 8 8 7 9 13 16 15 5 6 10 12 9 9 10 10 10
3 2 2 2 3 2 3 3 3 2 2 1 0 0 1 1 2 2 1 2 3 3 3 3 2 2 2 2 1 2 2 2 3 4 4 4 5 5 5 4 5 5 5 5 5 5 6 6 6 6 7 6 6 7 7 7 7 7 7 7 8 7 8 9 9 7 6 6 5 5 5 9 13 14 13 15 12 10 12 8 10 11 10 11 10
4 4 4 4 4 5 5 4 3 3 1 0 1 1 1 1 1 1 1 1 2 2 3 2 1 2 2 2 2 2 3 2 2 3 4 4 5 6 5 5 4 5 5 5 5 5 5 6 6 6 6 7 6 7 8 8 7 7 7 7 8 8 8 9 10 9 8 6 5 7 9 10 11 11 12 14 19 14 7 11 12 11 13 13 11
4 5 5 5 6 6 6 3 4 2 1 1 2 2 2 2 1 2 1 1 0 2 1 2 2 1 2 2 2 2 3 4 4 4 4 5 6 6 6 5 5 5 5 5 5 5 5 6 6 6 7 7 7 7 8 8 7 7 8 9 8 8 8 9 10 9 9 9 8 9 10 10 11 13 13 12 14 18 21 11 11 14 13 13 14
6 5 6 6 7 6 6 5 4 3 3 3 3 3 2 2 3 3 3 3 2 2 3 2 2 2 3 3 3 3 3 4 4 5 5 5 7 7 6 6 6 6 6 6 6 6 5 6 6 7 7 8 7 8 8 9 10 10 10 9 9 9 9 10 10 10 9 10 10 10 10 10 11 11 12 12 12 15 20 18 16 14 15 14 12
6 7 7 7 7 6 6 5 5 5 4 4 5 4 4 4 5 4 5 4 3 4 4 4 3 4 4 4 5 5 4 5 5 6 6 5 7 7 7 6 6 6 6 6 6 6 6 6 7 8 8 9 8 9 10 11 10 10 10 10 10 11 10 10 10 10 10 10 10 11 11 11 11 10 10 11 13 14 18 21 17 17 18 15 13
7 7 8 8 6 6 5 7 7 6 5 6 6 6 5 5 5 6 7 5 6 6 5 6 5 5 5 5 6 7 7 6 7 8 7 7 8 8 8 8 7 7 7 7 8 8 7 7 8 8 8 9 9 10 10 10 10 10 10 11 11 11 10 11 12 12 11 11 11 10 11 11 11 12 13 12 13 15 16 19 19 16 17 21 16
7 6 6 7 7 7 6 8 8 8 7 7 7 6 6 6 6 8 8 8 7 7 7 7 6 7 7 8 8 8 8 7 8 9 9 9 9 9 8 8 8 8 8 8 9 8 7 8 8 9 9 9 9 9 9 10 10 10 10 10 10 11 11 11 11 12 12 11 12 11 11 11 12 12 12 12 13 14 15 19 19 17 17 16 14
5 6 7 6 7 7 8 9 8 8 8 8 8 7 6 7 8 8 10 9 8 8 8 9 8 9 8 8 9 8 9 9 10 10 10 9 9 9 9 9 9 9 8 9 10 10 8 9 8 8 8 8 9 9 10 11 10 10 10 11 11 12 11 12 11 12 13 12 12 12 12 12 13 12 12 13 13 13 14 17 18 17 19 20 16
6 7 7 7 7 8 8 8 9 8 8 8 7 7 6 6 8 9 11 9 8 8 9 10 11 10 10 9 9 8 10 10 10 10 10 9 9 9 9 9 9 10 10 10 10 9 9 9 9 9 10 10 10 10 11 10 10 10 11 11 12 11 12 13 13 14 13 14 12 12 12 12 13 12 13 13 14 14 15 16 18 17 18 20 17
6 6 8 8 8 9 8 8 7 7 8 7 6 6 6 7 8 10 11 11 10 10 9 11 10 11 10 9 10 9 10 10 10 10 10 10 10 10 10 9 9 10 10 10 10 10 10 10 10 10 10 10 10 10 9 10 10 10 10 11 11 11 13 13 13 14 13 14 15 14 13 13 13 13 13 13 13 14 15 15 15 19 20 18 18
6 7 8 9 9 9 8 7 8 7 7 6 7 7 7 8 9 10 11 11 10 10 10 10 11 10 10 11 11 10 9 9 9 9 10 10 10 10 10 10 10 10 10 10 10 9 10 10 10 11 11 11 10 10 11 10 10 11 11 11 13 10 12 14 13 14 15 16 15 15 14 14 13 13 13 13 13 13 14 14 15 16 18 22 19
7 7 8 9 9 9 8 8 7 7 6 8 9 7 9 8 7 10 10 10 11 11 11 10 10 10 11 11 11 10 10 11 11 12 12 10 9 9 9 10 10 10 9 8 9 10 10 10 10 11 11 10 10 10 10 11 11 11 11 12 13 12 13 14 13 13 14 14 13 15 14 14 13 13 13 13 14 14 14 14 14 15 16 19 20
8 8 8 9 9 9 8 7 8 9 9 9 10 8 6 7 8 9 10 11 12 10 10 10 10 10 11 11 11 10 10 11 11 12 11 10 9 9 9 9 10 9 8 7 8 10 10 11 11 11 10 10 10 10 10 11 11 10 11 12 12 13 14 13 12 13 14 13 14 14 13 14 14 14 14 15 15 15 15 15 16 16 16 19 19
7 8 8 8 8 9 9 10 9 9 9 9 8 7 6 7 8 8 11 11 11 9 9 8 9 8 7 10 11 10 10 10 10 11 10 10 11 10 10 10 10 10 10 9 9 9 9 9 9 11 10 11 10 10 10 10 11 11 11 12 12 12 13 14 13 13 13 13 14 16 15 15 15 16 16 15 15 15 15 16 16 16 17 18 20
8 8 9 9 9 9 9 9 9 9 8 7 8 7 9 9 8 9 9 10 10 11 10 11 10 9 10 10 11 11 11 11 11 10 10 11 11 11 11 11 11 9 10 10 10 10 10 11 10 11 11 11 11 11 11 12 11 11 12 12 13 14 15 16 15 14 12 13 16 17 17 16 15 15 15 16 16 16 16 16 17 17 18 18 19
8 8 8 8 9 9 9 8 8 8 8 8 8 9 9 8 9 10 10 11 11 11 10 10 9 10 11 12 12 12 13 11 11 11 11 11 11 10 11 10 9 10 10 10 10 11 11 10 11 11 12 11 12 12 11 11 11 13 13 14 15 15 16 15 15 16 15 15 16 18 18 18 17 17 16 16 16 17 17 17 17 18 18 18 19
9 9 9 8 9 9 9 7 7 7 9 9 8 7 8 9 8 8 8 9 10 11 9 10 9 9 11 12 12 12 11 10 11 11 11 11 11 10 10 9 10 10 9 10 11 9 9 11 11 12 12 12 12 13 12 11 12 13 14 11 12 15 16 16 16 16 17 15 16 18 19 19 18 19 19 19 18 18 18 18 18 18 19 19 19
8 8 8 8 8 9 8 9 10 10 10 9 8 8 8 9 9 8 8 10 9 10 9 8 9 10 12 11 11 11 10 11 12 11 11 11 10 10 9 9 9 9 9 9 10 10 11 11 12 12 12 12 12 12 11 12 12 14 15 15 14 16 16 17 18 18 18 17 18 18 20 19 15 19 19 19 19 20 18 19 21 19 20 21 22
6 6 6 7 8 8 8 9 9 8 8 8 8 7 7 7 8 7 9 10 9 8 7 8 9 10 11 11 11 11 11 11 11 10 11 11 10 9 8 9 9 8 9 9 10 11 11 11 11 12 11 11 12 12 12 12 14 14 15 17 17 17 17 18 19 19 19 18 19 19 19 19 19 20 20 19 18 19 19 19 21 22 22 24 22
7 7 7 7 7 8 8 8 8 8 7 7 7 7 7 7 6 7 8 8 8 7 7 8 8 10 11 10 11 10 10 11 11 9 11 10 9 9 8 9 9 9 10 10 10 9 10 10 10 11 12 12 12 13 13 14 14 14 16 17 18 18 18 19 19 19 18 19 19 19 20 20 20 20 20 21 20 23 22 20 21 22 21 23 20
7 7 7 7 7 6 7 8 7 7 7 7 7 7 7 6 8 7 7 8 8 6 7 7 8 8 9 10 10 10 10 10 10 9 10 9 9 9 9 8 9 10 10 9 10 9 9 11 11 12 12 12 12 13 13 14 15 16 16 17 17 18 18 18 19 18 18 19 19 20 21 21 21 21 21 20 21 23 22 21 24 24 22 23 23
8 8 7 7 7 8 7 7 7 7 7 6 6 6 6 7 8 8 6 6 7 6 7 7 7 8 9 9 9 9 9 9 9 8 8 8 9 9 9 10 9 9 10 10 10 10 10 10 11 12 12 13 13 13 13 14 15 16 17 17 18 18 18 17 17 20 21 21 21 20 20 20 21 21 22 21 21 22 20 23 23 24 23 23 22
6 7 7 8 8 8 7 7 7 6 6 6 6 6 7 7 7 7 6 5 4 5 7 7 7 8 8 8 8 8 8 8 8 8 8 9 9 9 9 9 9 9 9 10 10 11 11 10 11 12 12 12 13 13 13 14 15 15 16 17 18 18 18 18 19 20 21 20 20 21 20 21 21 21 21 21 20 21 21 22 22 22 23 24 23
7 7 6 7 7 7 8 7 7 6 7 7 6 6 6 6 7 7 6 6 5 6 7 7 7 8 8 7 7 7 7 8 8 8 8 9 9 9 9 9 8 9 8 9 10 11 12 13 13 13 13 12 12 11 11 12 14 16 16 17 18 18 19 19 21 20 19 20 20 19 19 20 21 24 28 29 30 27 23 24 23 23 22 23 22
8 8 8 7 7 7 8 7 7 7 7 6 6 6 5 5 6 6 6 6 4 6 7 7 7 7 7 7 8 8 8 8 8 8 8 8 8 9 8 9 9 9 10 10 11 11 12 13 13 13 12 11 10 10 12 20 20 16 18 17 18 18 19 20 20 21 20 20 20 19 18 25 27 29 31 32 32 32 32 26 23 21 22 22 23
8 7 8 7 8 7 7 7 8 7 6 6 6 6 5 6 6 6 6 5 4 6 7 7 8 7 7 7 7 7 7 8 8 8 8 9 9 8 9 9 9 10 11 11 11 12 12 12 13 13 13 11 10 10 18 22 23 26 20 18 18 19 19 19 20 20 21 20 19 20 20 21 23 25 23 28 29 30 30 30 31 32 28 25 23
8 8 7 7 7 7 7 8 7 7 7 6 6 5 5 6 6 6 6 6 6 6 7 7 8 7 7 8 7 8 8 8 8 9 9 9 9 9 10 10 10 11 11 11 12 12 13 12 11 13 13 12 11 14 21 23 24 25 23 19 17 17 18 18 19 20 19 20 20 20 19 18 18 21 22 22 24 29 30 31 33 33 33 35 32
8 8 8 8 8 7 8 7 6 6 6 7 5 5 6 6 6 7 6 6 6 7 7 7 7 7 8 7 7 8 8 8 8 9 8 9 9 10 10 10 11 11 11 12 13 13 13 12 12 13 13 13 12 16 21 24 24 25 26 23 16 17 17 18 20 20 20 19 18 18 19 17 17 26 23 20 21 23 26 34 34 35 35 36 35
7 7 7 8 7 6 6 6 7 8 7 7 6 6 6 6 5 6 6 6 6 7 6 7 8 7 8 7 7 8 9 9 9 9 9 9 9 9 10 10 11 11 12 13 13 13 12 12 12 13 13 13 14 15 21 23 24 25 26 24 17 18 18 18 19 19 17 19 18 19 17 18 20 22 22 22 21 20 24 23 23 24 22 26 33
7 8 8 7 8 8 8 7 6 6 6 5 7 5 4 5 5 6 6 6 6 7 7 7 8 8 8 7 8 8 9 9 9 9 8 9 9 9 11 11 11 11 12 12 12 12 11 11 12 12 13 13 12 18 21 24 25 26 26 23 17 16 16 17 17 17 18 19 19 18 19 21 22 22 22 23 23 25 23 22 25 23 22 24 25
7 8 9 9 9 8 8 8 7 6 6 6 7 4 4 6 5 5 6 5 6 7 8 7 8 8 8 8 8 9 9 9 9 9 9 9 9 10 12 12 11 11 11 11 11 11 12 12 12 13 13 14 14 19 22 24 25 25 26 17 15 16 17 17 17 17 18 18 17 19 20 20 22 23 24 33 31 26 25 27 23 24 26 23 22
8 8 9 9 8 7 7 6 7 7 7 7 5 4 5 6 6 6 6 6 7 7 8 7 7 7 7 7 8 8 8 8 8 9 9 10 11 12 12 10 12 11 11 11 11 11 10 11 13 14 14 14 14 18 23 23 23 24 20 15 16 15 16 17 17 17 18 18 18 19 18 21 23 21 29 36 35 33 23 22 23 26 22 25 24
8 8 8 8 8 7 6 5 7 8 8 6 5 5 5 6 7 6 6 7 7 8 7 7 7 7 7 7 7 7 8 8 8 9 10 10 11 10 10 10 11 12 12 12 12 11 11 10 13 15 14 15 15 19 23 22 23 24 21 16 15 15 17 17 17 18 16 18 19 25 26 23 23 25 34 36 37 32 25 25 23 25 23 22 20
8 9 10 11 10 8 7 6 6 9 8 6 5 5 5 6 6 6 6 7 7 7 7 7 7 7 7 7 7 7 7 8 9 9 9 11 11 10 10 10 10 11 12 11 11 11 11 11 12 14 16 16 15 17 20 20 23 23 20 15 15 15 16 16 16 18 18 17 18 19 28 28 27 29 37 37 40 33 25 23 22 21 23 22 19
9 8 8 9 9 8 7 7 7 8 6 6 5 5 6 6 7 6 6 7 7 6 6 6 6 6 6 6 6 6 7 8 9 10 9 10 10 10 10 11 11 10 11 11 11 11 13 13 13 13 12 13 15 15 16 22 22 24 24 17 16 15 17 18 17 18 18 14 15 20 20 26 33 35 37 39 38 38 27 23 19 18 19 21 18
10 10 9 8 7 6 7 7 7 7 6 5 4 5 6 6 6 6 7 6 6 6 6 5 5 6 6 6 6 6 8 8 8 9 9 9 9 10 11 11 12 11 11 12 13 12 12 13 12 12 12 13 12 15 17 23 22 24 26 24 15 17 17 17 17 17 14 16 18 15 15 29 35 37 37 37 37 36 33 22 16 17 18 25 27
8 9 8 8 7 7 7 6 6 6 5 4 4 6 6 6 6 7 7 6 5 5 5 5 6 6 6 6 6 7 6 6 7 7 9 9 9 9 10 11 10 11 13 13 12 11 12 12 11 13 13 14 13 17 16 19 23 26 26 27 18 17 19 18 17 14 17 17 15 17 19 25 35 34 36 37 36 33 33 20 18 28 33 32 24
10 9 8 6 7 7 7 7 5 5 4 3 4 7 7 6 6 7 6 5 5 5 5 5 5 5 5 6 6 7 7 6 6 7 8 9 9 9 10 10 11 12 13 14 13 12 11 12 12 12 12 13 14 14 18 19 24 25 27 27 28 23 27 19 17 18 18 14 18 19 18 28 34 37 34 32 31 33 26 19 30 31 31 33 27
9 8 9 7 8 8 8 6 5 5 4 3 4 6 6 5 8 5 3 3 3 4 3 4 4 4 5 5 6 6 6 6 6 7 7 9 9 9 9 9 10 11 11 12 10 10 12 12 12 13 13 13 13 14 17 21 21 27 27 27 27 29 29 20 19 17 15 19 17 16 21 36 34 32 31 30 30 28 21 29 29 30 29 27 16
9 9 8 6 7 9 8 8 6 5 4 3 4 5 5 7 6 4 3 3 3 3 4 4 4 5 5 5 6 6 6 6 6 7 8 8 9 8 10 9 9 10 10 12 13 12 11 11 12 13 13 14 14 13 13 18 26 25 26 26 28 30 30 29 21 16 18 16 25 34 33 31 30 29 30 28 24 24 27 27 28 27 25 13 13
7 7 7 6 7 7 7 9 8 5 4 3 3 4 5 6 5 4 4 3 3 4 4 4 4 5 5 5 6 6 5 6 6 6 6 7 8 10 10 10 10 10 11 12 12 11 10 11 12 13 14 14 13 13 15 15 15 19 20 26 30 30 29 30 27 22 26 31 29 29 31 28 25 22 18 15 15 17 25 27 25 23 14 13 13
9 8 6 6 4 7 7 6 7 7 4 3 2 3 3 4 3 3 3 3 4 4 4 3 4 4 4 3 6 6 7 7 6 7 7 7 7 8 10 10 9 11 12 11 11 11 11 11 13 14 13 12 13 14 14 14 14 15 16 17 19 19 24 25 18 15 19 18 20 20 19 23 20 25 23 20 20 20 17 15 14 14 13 12 12
6 7 5 6 6 7 7 6 7 6 4 3 3 2 3 2 2 3 2 2 3 4 3 3 5 4 4 5 5 8 8 6 6 6 8 8 7 6 9 10 11 11 11 11 12 12 13 13 12 12 13 14 15 13 13 14 15 16 17 16 15 15 14 14 14 15 16 16 15 18 19 13 15 15 14 11 11 12 13 13 13 13 13 13 15
8 8 3 7 6 6 8 7 7 6 4 2 2 2 3 3 3 2 2 3 3 3 3 4 4 5 5 5 5 6 6 7 8 7 6 6 8 9 9 10 12 10 9 10 12 13 12 12 12 13 14 15 14 14 14 19 21 24 21 18 16 15 15 15 18 26 18 15 14 13 13 16 15 15 15 14 14 14 15 15 14 13 13 13 13
7 6 5 5 5 6 6 6 6 5 3 2 2 3 3 3 3 3 3 4 3 3 3 4 4 5 5 6 6 7 7 7 7 7 7 7 8 11 10 9 11 16 19 19 16 13 14 14 14 12 11 13 13 15 24 29 28 28 28 27 26 26 26 21 23 26 16 12 12 12 13 13 14 14 14 14 15 14 15 15 14 15 13 12 13
8 7 6 5 7 4 5 6 6 4 2 1 2 3 3 3 3 3 4 4 3 3 3 4 5 5 6 6 7 7 7 7 7 7 8 9 9 7 10 13 14 15 17 19 21 23 22 20 15 14 15 21 22 24 26 27 28 27 27 27 27 27 26 24 23 18 13 11 11 12 13 12 13 12 13 14 13 14 14 15 15 14 12 13 13
Wind_Direction
11 6 46 40 38 36 35 34 37 47 38 37 42 43 41 40 39 40 25 18 22 32 34 30 45 80 72 62 69 67 62 64 60 52 48 41 30 30 27 27 21 18 18 15 15 9 7 7 4 7 359 4 3 5 0 354 354 350 345 340 344 344 346 355 349 336 326 327 325 312 303 282 268 263 257 260 329 328 300 292 316 309 311 320 320
323 25 55 57 43 39 39 34 29 40 34 33 40 42 40 43 46 39 30 32 29 27 28 39 33 27 41 65 63 56 55 48 52 47 41 40 32 26 25 22 16 18 13 8 10 6 3 359 0 359 356 353 347 341 345 345 347 350 346 341 346 340 333 345 349 342 347 343 331 326 314 304 280 261 253 266 317 316 289 288 310 297 302 314 315
259 178 67 60 52 43 40 38 38 39 40 38 33 49 50 48 42 38 34 27 33 17 20 39 35 22 9 44 46 79 57 45 55 44 33 29 29 23 17 12 5 8 7 1 359 358 357 352 348 347 348 344 337 337 341 341 346 344 347 343 335 333 325 334 346 357 334 331 316 314 327 325 320 274 231 309 314 300 273 288 309 290 297 307 308
224 350 30 43 33 25 26 32 26 13 37 68 42 49 47 49 38 32 39 37 35 32 18 23 26 20 19 25 32 23 65 94 137 78 24 8 6 11 9 357 358 350 355 352 352 346 347 344 338 339 336 337 329 325 327 328 336 335 338 333 329 323 330 324 332 332 342 337 337 333 311 307 309 315 322 307 295 279 260 291 298 286 298 304 302
282 296 14 9 344 328 308 282 244 242 172 74 40 46 63 47 37 25 42 36 41 26 19 6 346 226 176 187 204 212 215 239 245 302 350 343 328 348 346 344 342 340 336 341 336 334 330 331 329 324 322 321 318 315 316 319 316 318 322 319 322 319 316 317 313 315 313 325 314 324 323 311 309 312 319 303 295 294 285 284 271 270 286 298 300
263 271 279 293 278 271 241 233 229 223 201 172 229 18 14 44 21 21 50 38 28 28 6 4 20 5 340 309 293 316 324 353 346 338 333 332 330 323 314 321 322 319 317 314 314 315 312 311 310 311 311 312 311 310 305 305 307 310 315 311 306 308 305 305 305 308 303 292 267 266 275 295 310 312 316 310 305 285 289 287 285 281 275 281 283
222 239 248 245 243 247 239 231 229 238 174 251 230 264 269 305 327 334 352 36 22 357 354 324 349 22 6 8 355 337 319 322 320 303 299 305 306 303 302 299 291 297 297 294 295 294 295 296 296 297 299 298 301 298 299 300 300 302 303 299 300 301 296 295 301 307 304 284 268 265 267 265 274 293 302 306 307 304 271 296 295 288 288 285 282
220 226 227 239 245 248 253 245 244 249 289 260 265 240 264 287 302 306 299 298 258 305 314 328 312 336 326 311 282 285 296 300 298 297 293 287 289 291 292 291 286 275 280 282 280 282 287 288 290 292 293 295 295 293 294 295 298 294 291 290 287 285 289 290 296 298 298 298 292 285 281 275 271 268 265 276 287 299 304 292 281 293 293 288 287
223 226 229 232 239 238 243 250 248 256 255 255 251 263 254 259 265 255 263 254 252 259 282 283 299 297 284 287 285 273 274 277 285 275 278 278 281 284 282 285 282 274 268 275 275 274 276 283 286 288 292 293 292 291 290 291 291 291 289 290 290 290 288 287 286 287 290 291 298 290 286 284 282 275 275 270 273 289 290 295 300 299 292 285 285
225 233 237 240 241 245 252 270 273 265 256 252 258 256 247 242 249 256 255 256 254 253 253 259 251 261 265 264 273 279 275 277 269 276 275 273 278 283 283 285 287 289 284 271 271 269 271 278 281 283 287 289 289 288 287 283 283 282 282 282 284 283 282 281 278 283 283 284 282 287 288 288 284 282 278 283 280 273 285 295 297 300 299 294 292
217 221 231 242 245 255 263 263 267 262 246 246 250 246 242 241 250 256 257 253 250 249 245 256 250 248 262 262 263 271 273 273 280 279 278 280 284 286 286 286 284 283 282 281 276 277 273 274 278 282 284 284 282 283 283 287 288 288 287 283 277 274 278 279 279 275 275 276 275 275 277 279 283 286 287 286 284 287 291 288 291 292 289 291 287
214 220 240 244 250 250 248 256 255 254 248 241 242 243 243 246 244 255 257 250 248 243 245 250 250 248 249 254 258 260 266 268 271 276 278 280 280 282 282 281 278 278 276 274 275 272 271 276 274 276 276 278 278 281 284 285 286 286 285 283 282 281 278 277 276 277 274 275 276 275 275 277 276 275 279 281 281 282 285 288 292 298 289 278 285
211 229 237 240 242 248 244 246 247 244 241 243 242 241 243 246 246 253 260 252 248 248 247 251 248 249 247 249 252 255 257 260 263 265 268 269 271 273 276 277 280 281 279 281 280 277 277 279 277 276 279 279 281 281 281 280 282 282 283 282 280 279 278 277 277 276 276 277 280 279 277 277 275 275 276 275 276 277 278 283 283 286 289 293 291
218 227 232 236 239 242 243 246 245 245 244 243 243 242 242 244 248 249 260 259 253 250 249 251 251 250 249 248 251 251 253 253 253 257 260 262 265 266 267 270 275 275 279 276 280 281 276 274 274 272 271 274 274 275 276 278 278 279 281 281 280 279 278 276 275 275 272 270 271 274 273 273 273 274 272 271 272 275 276 278 287 287 285 287 290
223 231 234 235 240 243 244 242 244 244 247 246 241 241 242 248 246 248 257 257 250 249 250 251 255 253 248 246 246 248 249 250 252 252 256 257 258 259 261 265 266 269 271 275 280 277 277 277 273 273 272 272 275 276 276 277 278 278 279 279 278 277 276 275 274 274 272 270 268 267 273 272 272 272 271 270 271 271 275 280 285 292 292 285 287
224 232 239 241 241 244 243 243 243 244 245 246 244 240 236 241 244 248 252 261 259 252 248 250 253 254 253 251 249 249 251 254 257 254 250 250 254 257 262 263 265 269 270 272 271 273 276 276 275 271 272 272 272 273 276 277 279 280 281 281 280 278 277 274 274 274 272 270 270 270 271 272 273 273 272 273 271 271 273 276 277 280 286 293 293
231 232 237 240 240 238 239 244 247 246 245 240 240 233 234 241 244 249 252 255 256 254 253 253 254 254 254 252 251 249 248 250 254 257 256 254 254 255 257 261 267 267 268 265 272 273 274 275 277 275 273 272 272 272 275 276 277 278 279 280 280 279 277 277 277 276 275 276 275 275 274 276 276 276 274 273 272 271 270 271 270 272 277 280 289
241 245 247 249 249 250 249 246 244 246 247 251 249 246 244 247 250 255 258 258 256 255 254 254 258 258 259 259 255 251 253 254 255 260 264 267 264 260 258 260 258 264 266 268 271 274 273 273 274 274 273 271 271 274 274 275 276 276 277 277 278 279 279 278 278 280 281 280 278 277 277 278 278 277 276 274 274 273 272 271 271 270 268 271 276
251 249 248 245 241 243 243 247 247 246 247 252 262 264 260 254 251 250 257 262 271 276 274 271 265 262 264 268 272 272 265 262 262 263 266 267 267 268 269 269 275 274 276 275 274 277 278 280 278 280 279 278 278 278 278 279 277 279 281 282 283 284 284 285 285 285 284 283 281 279 278 277 278 277 276 275 273 272 271 272 271 270 267 267 270
247 246 245 246 248 248 250 252 256 254 254 253 258 261 259 260 260 259 263 269 273 272 273 274 271 270 271 273 269 266 266 266 265 267 266 265 267 270 273 275 274 280 279 281 280 281 284 286 288 286 284 283 283 282 282 281 281 280 283 287 290 290 288 287 288 286 285 283 283 280 279 278 279 280 278 277 276 274 273 274 273 272 270 268 270
249 251 257 258 259 260 257 256 258 262 259 260 258 260 266 268 265 265 267 273 271 269 270 267 271 271 270 270 271 270 267 266 267 264 265 267 269 270 270 272 280 276 281 283 281 284 289 293 292 288 286 285 284 284 282 284 283 285 286 288 290 289 287 287 287 286 283 281 279 279 279 280 281 280 280 280 278 278 277 276 274 272 271 269 268
259 263 265 270 269 268 267 260 253 256 262 260 260 259 262 263 262 267 266 263 269 273 266 271 273 272 272 273 272 272 272 273 272 272 272 271 270 270 273 277 275 280 283 284 285 290 293 294 290 287 284 282 282 283 285 285 286 288 290 290 289 289 287 286 286 284 284 282 281 282 283 284 284 283 282 281 280 280 277 276 275 272 273 272 271
286 288 287 283 282 283 283 280 277 272 272 274 273 267 267 271 271 267 265 268 264 268 272 273 273 275 276 277 277 276 277 277 277 276 275 274 274 275 278 278 282 288 289 286 292 295 294 289 285 282 283 283 284 286 288 289 290 291 292 292 289 289 288 286 285 284 284 286 285 284 285 285 285 284 282 279 278 276 275 275 276 275 274 277 278
284 283 279 280 282 284 282 279 276 271 267 267 268 270 269 267 267 267 264 267 271 268 273 275 275 275 279 280 278 280 280 279 279 278 277 278 281 284 287 287 291 295 293 294 292 290 287 284 284 285 286 289 292 294 296 295 295 293 292 290 289 286 285 284 284 285 286 286 285 285 284 285 284 281 281 280 280 278 277 279 280 282 280 280 279
289 288 287 286 282 278 277 277 275 276 276 275 273 273 270 269 267 264 266 270 271 276 276 277 277 281 283 283 283 285 282 281 279 280 281 286 289 291 294 295 298 297 295 294 291 287 286 287 291 293 297 298 298 299 298 295 293 289 288 287 286 285 284 284 283 283 284 284 285 285 287 285 283 282 283 285 287 283 284 283 282 283 281 279 278
292 293 290 288 290 286 281 278 277 275 276 277 275 269 268 269 269 266 269 276 276 278 277 278 281 281 282 284 284 284 280 281 284 286 289 294 297 298 299 298 294 294 294 290 289 292 291 293 296 298 298 298 299 297 295 292 291 290 288 288 287 286 285 285 286 287 289 291 290 288 285 284 283 282 281 283 282 282 284 281 280 281 279 279 278
305 303 300 299 290 288 289 287 277 275 269 267 269 272 271 269 271 268 259 266 278 287 285 282 281 278 280 280 283 283 288 291 292 296 299 299 298 297 296 293 293 291 291 293 295 296 298 298 299 299 298 297 295 292 290 291 291 291 291 290 289 288 289 289 288 292 293 292 288 284 284 282 281 279 280 280 282 282 278 277 278 281 278 279 279
283 285 287 290 292 290 286 285 283 273 270 264 259 259 265 266 270 276 278 272 271 278 281 283 282 281 277 280 284 291 293 293 296 298 296 294 293 292 293 293 294 294 295 297 300 301 302 300 298 295 292 290 289 290 291 291 291 293 294 292 291 293 293 293 292 294 293 288 285 283 281 280 278 278 280 281 281 282 284 284 284 282 281 281 280
294 292 289 287 291 293 294 288 280 276 271 267 262 260 253 258 261 267 275 279 289 286 282 279 280 277 281 288 294 295 293 296 297 296 294 294 296 296 295 296 296 296 296 297 300 303 302 298 293 290 291 292 292 291 291 294 295 294 295 297 296 296 296 296 297 293 289 287 285 282 280 279 280 282 283 284 283 281 283 284 284 283 283 283 281
299 299 297 292 285 286 284 285 279 270 268 267 268 268 267 272 278 278 277 281 280 278 279 282 282 288 296 301 302 299 297 300 297 296 297 298 298 300 301 301 302 301 302 302 300 297 293 292 294 294 295 295 293 291 288 288 289 292 299 300 298 297 298 298 295 293 289 286 285 283 283 285 286 287 286 285 284 284 284 285 286 289 287 286 283
289 285 285 286 286 280 278 274 271 271 271 275 281 287 290 283 274 275 281 288 289 289 290 292 295 302 304 304 302 300 301 298 299 298 300 304 307 307 304 303 304 304 302 300 298 297 295 294 295 297 298 297 294 291 290 291 294 299 301 301 300 300 299 296 292 290 290 289 288 290 289 290 288 289 287 289 290 290 290 289 288 285 283 283 284
292 288 286 283 280 280 275 273 279 282 286 281 281 287 285 282 288 288 293 304 299 293 293 296 296 301 303 305 304 302 301 301 303 305 308 309 307 306 304 304 303 303 304 300 297 296 297 298 298 298 298 297 295 291 291 294 299 302 303 302 302 300 298 294 292 290 289 290 291 294 294 295 291 290 289 291 291 289 291 289 286 288 282 282 278
284 285 284 283 283 285 289 292 286 277 276 280 283 282 280 288 295 298 306 298 296 293 295 295 300 303 304 302 301 300 300 302 306 308 309 306 305 303 304 307 308 307 302 300 299 298 299 300 300 300 299 297 295 292 293 298 301 303 305 308 304 299 295 292 290 289 290 291 292 293 293 292 290 291 290 289 290 290 286 289 285 281 282 277 278
273 270 274 279 285 286 288 282 278 279 276 282 281 271 277 285 287 294 290 291 293 296 297 299 300 302 301 300 301 302 302 305 308 308 307 304 305 308 312 311 308 305 302 300 299 300 301 301 301 300 298 297 295 293 297 300 303 306 309 310 303 299 294 290 290 291 291 292 291 292 292 291 291 290 291 291 289 286 292 285 285 283 280 281 279
280 281 279 280 284 287 286 287 281 279 283 287 282 263 278 287 286 289 289 292 297 297 299 298 301 301 302 304 307 306 306 307 308 308 308 309 315 318 316 312 307 304 303 303 304 305 303 302 301 300 299 296 294 298 302 302 304 308 311 310 302 297 293 291 291 291 291 290 290 287 288 289 291 292 293 288 291 293 290 290 288 283 280 280 279
274 283 288 287 288 290 294 295 298 287 279 270 273 288 300 297 297 287 292 294 297 295 292 295 296 299 303 307 308 308 308 311 314 316 318 320 323 319 313 310 306 303 301 301 299 300 302 303 303 300 297 297 299 304 302 301 306 311 313 309 302 298 296 294 293 292 291 291 289 291 290 291 296 292 292 296 296 296 293 291 287 286 284 278 279
282 280 282 287 289 288 288 292 282 276 275 278 291 301 294 293 293 291 295 293 290 285 286 290 292 300 308 312 314 314 314 317 322 324 327 326 320 315 310 310 306 305 305 304 302 304 304 304 302 299 299 300 303 302 300 304 309 312 312 306 303 300 299 298 296 295 294 293 294 293 297 300 298 296 297 298 297 296 296 292 290 288 284 284 280
270 281 280 279 278 279 275 255 274 277 276 279 287 288 288 285 284 285 285 284 281 283 290 298 305 315 318 318 318 320 322 327 332 332 326 318 313 308 308 310 306 307 306 306 306 305 306 304 301 298 300 304 300 296 300 306 311 312 311 307 306 304 302 301 299 299 300 301 299 301 300 299 296 299 300 300 301 302 297 294 289 291 285 284 280
268 273 282 284 283 285 287 279 268 271 277 282 283 281 277 275 277 281 281 283 285 295 310 317 320 321 318 320 324 332 336 338 334 327 320 314 313 313 309 309 306 304 302 306 307 306 306 302 296 295 297 297 295 296 301 308 312 312 313 310 309 307 304 305 306 306 306 303 300 301 299 298 301 302 303 303 302 299 298 297 296 296 295 290 288
282 274 261 267 273 280 274 265 267 273 287 288 286 278 271 272 278 282 283 286 297 315 322 321 319 320 321 330 341 347 348 338 327 320 318 313 311 310 313 310 307 306 308 308 308 306 305 301 297 299 303 298 297 299 304 312 311 313 314 314 312 309 311 312 311 308 305 300 302 303 297 304 306 303 302 302 302 304 306 306 308 303 302 302 309
279 279 285 278 270 262 271 280 283 288 290 290 281 279 279 277 282 285 284 297 320 326 326 326 324 328 338 349 353 354 338 325 322 318 313 310 313 314 312 310 310 310 308 305 304 304 302 298 300 306 304 299 297 305 310 314 313 313 315 316 315 316 316 313 310 307 303 306 305 301 305 304 302 305 304 304 311 314 316 315 312 308 307 310 316
252 253 258 271 281 284 283 279 270 273 275 279 282 281 280 284 289 286 297 332 336 336 336 333 336 346 355 354 349 337 325 316 315 319 317 313 312 308 308 311 311 310 306 302 302 303 302 300 308 315 303 303 304 308 310 312 314 315 315 319 322 319 317 314 310 305 308 306 302 306 300 303 305 302 313 317 318 318 321 320 313 316 319 323 324
297 296 284 283 289 291 292 290 289 285 278 276 273 277 280 284 283 298 332 350 347 346 345 344 354 358 357 343 333 325 319 318 316 319 315 310 309 312 311 309 308 308 303 301 304 306 306 314 318 315 312 309 309 312 313 312 315 320 323 322 320 319 318 317 314 313 312 302 305 300 300 304 313 318 318 320 323 323 324 319 319 319 319 321 319
272 270 280 293 292 290 291 288 282 281 282 275 265 275 283 291 291 320 3 10 3 1 356 3 5 358 338 326 320 313 311 314 319 318 313 307 308 309 311 310 308 303 301 301 304 313 317 318 317 312 313 314 314 313 314 317 324 325 322 320 319 319 320 320 317 313 306 305 303 308 313 317 317 320 322 323 321 319 316 316 318 320 322 320 316
291 295 298 295 285 292 295 294 289 288 290 274 262 265 277 288 307 9 10 21 17 20 17 10 358 338 326 324 317 313 313 318 324 323 317 314 311 313 312 309 304 299 298 309 317 319 317 318 312 312 313 315 316 317 320 328 326 321 321 320 320 321 321 321 318 308 305 309 316 317 318 319 320 320 320 319 317 316 314 316 317 318 318 315 318
281 284 287 289 291 280 278 285 294 292 292 278 272 267 277 297 342 12 14 43 39 30 26 9 336 323 315 316 313 313 317 319 314 319 311 308 311 313 310 307 306 306 313 316 313 317 319 314 313 313 312 313 323 328 328 326 324 323 321 321 321 321 321 318 315 314 318 321 321 322 320 319 317 317 319 318 313 309 312 314 317 319 319 317 318
298 298 305 297 285 284 280 286 292 299 299 304 292 294 305 337 1 21 34 46 55 52 23 344 328 313 307 309 326 333 328 319 316 317 315 311 313 312 310 307 304 316 316 314 315 319 319 319 314 312 316 326 328 327 325 323 325 321 319 320 320 320 318 318 318 323 326 324 324 319 315 314 314 316 317 315 315 315 317 321 323 325 323 321 318
284 290 289 281 273 275 284 290 295 302 318 325 327 349 30 38 60 67 70 63 60 35 0 331 313 315 322 333 323 325 323 318 316 316 316 317 316 312 315 310 313 314 317 316 318 319 320 316 316 327 331 326 324 324 323 324 321 320 320 320 320 318 318 320 325 327 327 326 319 316 319 322 324 327 326 323 324 323 323 322 324 321 322 320 320
304 298 279 277 287 286 286 291 291 301 317 323 354 56 73 82 86 83 62 64 43 10 334 318 326 334 334 334 323 317 317 313 312 311 310 314 318 318 315 303 303 306 312 315 314 314 317 326 332 332 329 323 321 321 320 318 318 320 322 323 323 323 324 327 330 330 330 323 324 326 328 333 338 334 331 330 331 329 329 326 322 324 327 329 333
290 284 278 275 266 266 280 284 287 296 310 325 43 84 88 89 92 77 63 64 24 342 328 343 344 337 335 330 325 318 316 315 315 317 317 313 311 307 300 298 302 309 317 320 319 322 332 332 324 327 326 319 316 312 315 319 322 324 325 324 324 325 329 332 332 334 332 319 324 326 330 329 330 332 330 330 330 329 325 325 330 332 331 332 336
302 300 290 278 283 278 275 277 281 292 315 69 96 100 103 90 81 67 63 55 20 353 347 347 344 339 331 321 317 315 318 316 318 319 321 322 318 320 310 301 301 310 320 329 333 330 333 334 331 324 323 320 316 317 320 323 326 327 328 329 330 333 336 335 337 338 336 336 334 332 330 330 328 326 329 328 324 322 328 330 328 330 337 339 340